Weather History for KVEL - October, 2013

Change the Weather History Date:

Thursday, October 3, 2013

  Actual Average Record
Temperature  
Mean Temperature 44 °F 53 °F  
Max Temperature 55 °F 67 °F 84 °F (1942)
Min Temperature 33 °F 40 °F 21 °F (1959)
Degree Days  
Heating Degree Days 21 12  
Month to date heating degree days 34 34  
Since 1 July heating degree days 175 216  
Cooling Degree Days 0 0  
Month to date cooling degree days 0 0  
Year to date cooling degree days 787 511  
Moisture  
Dew Point 37 °F    
Average Humidity 77    
Maximum Humidity 100    
Minimum Humidity 54    
Precipitation  
Precipitation 0.55 in 0.04 in 0.70 in (1951)
Month to date precipitation 0.55 0.14  
Year to date precipitation 7.46 6.83  
Sea Level Pressure  
Sea Level Pressure 29.83 in    
Wind  
Wind Speed 8 mph (ENE)    
Max Wind Speed 16 mph    
Max Gust Speed 16 mph    
Visibility 8 miles    
Events Rain , Snow    
T = Trace of Precipitation, MM = Missing Value Source: NWS Daily Summary

Daily Weather History Graph

Daily Weather History Graph

Search for Another Location

Airport or City:

Trip Planner

Search our weather history database for the weather conditions in past years. The results will help you decide how hot, cold, wet, or windy it might be!

Date:

Astronomy

Oct. 03, 2013 Rise Set
Actual Time 7:16 AM MDT 6:56 PM MDT
Civil Twilight 6:49 AM MDT 7:23 PM MDT
Nautical Twilight 6:18 AM MDT 7:55 PM MDT
Astronomical Twilight 5:46 AM MDT 8:26 PM MDT
Moon 5:53 AM MDT (10/3) 6:06 PM MDT (10/3)
Length of Visible Light 12h 33m
Length of Day
11h 39m
Waning Crescent, 2% of the Moon is Illuminated
Oct 3
Waning Crescent
Oct 4
New
Oct 11
First Quarter
Oct 18
Full
Oct 26
Last Quarter

Hourly Weather History & Observations

Time (MDT) Temp. Windchill Dew Point Humidity Pressure Visibility Wind Dir Wind Speed Gust Speed Precip Events Conditions
12:53 AM 52.0 °F - 36.0 °F 54% 29.67 in 10.0 mi WNW 5.8 mph - N/A   Partly Cloudy
1:53 AM 53.1 °F - 37.0 °F 55% 29.66 in 10.0 mi West 3.5 mph - N/A   Partly Cloudy
2:53 AM 52.0 °F - 37.9 °F 59% 29.65 in 10.0 mi Calm Calm - N/A   Scattered Clouds
3:53 AM 51.1 °F - 39.0 °F 63% 29.64 in 10.0 mi Calm Calm - N/A   Clear
4:53 AM 50.0 °F - 39.9 °F 68% 29.64 in 10.0 mi WNW 4.6 mph - N/A   Partly Cloudy
5:53 AM 52.0 °F - 39.0 °F 61% 29.63 in 10.0 mi North 4.6 mph - 0.00 in   Mostly Cloudy
6:53 AM 53.1 °F - 37.9 °F 57% 29.62 in 10.0 mi NNE 6.9 mph - N/A   Mostly Cloudy
7:53 AM 52.0 °F - 39.0 °F 61% 29.63 in 10.0 mi WNW 8.1 mph - N/A   Overcast
8:53 AM 53.1 °F - 42.1 °F 66% 29.63 in 10.0 mi NNW 5.8 mph - 0.00 in   Overcast
9:53 AM 52.0 °F - 44.1 °F 74% 29.65 in 10.0 mi ESE 5.8 mph - 0.00 in Rain Light Rain
10:53 AM 50.0 °F - 43.0 °F 77% 29.67 in 10.0 mi ENE 8.1 mph - 0.00 in Rain Light Rain
11:53 AM 48.0 °F - 42.1 °F 80% 29.71 in 10.0 mi NNE 8.1 mph - 0.02 in Rain Light Rain
12:53 PM 45.0 °F 40.1 °F 41.0 °F 86% 29.75 in 8.0 mi NE 9.2 mph - 0.07 in Rain Light Rain
1:53 PM 42.1 °F 36.6 °F 37.9 °F 85% 29.77 in 3.0 mi NNE 9.2 mph - 0.07 in Rain Rain
2:30 PM 39.2 °F 33.0 °F 37.4 °F 93% 29.85 in 2.0 mi NNE 9.2 mph - 0.08 in Rain Heavy Rain
2:37 PM 39.2 °F - 37.4 °F 93% 29.87 in 2.5 mi Calm Calm - 0.10 in Rain Rain
2:41 PM 39.2 °F 34.2 °F 37.4 °F 93% 29.88 in 3.0 mi South 6.9 mph - 0.10 in Rain Rain
2:53 PM 37.9 °F 31.5 °F 36.0 °F 93% 29.83 in 2.5 mi East 9.2 mph - 0.16 in Rain Heavy Rain
3:06 PM 37.4 °F 29.8 °F 35.6 °F 93% 29.89 in 4.0 mi East 11.5 mph - 0.04 in Rain Rain
3:53 PM 36.0 °F 27.1 °F 35.1 °F 97% 29.85 in 8.0 mi ENE 13.8 mph - 0.08 in Rain Light Rain
4:05 PM 37.4 °F 28.9 °F 35.6 °F 93% 29.89 in 10.0 mi ENE 13.8 mph 20.7 mph 0.00 in Rain Light Rain
4:53 PM 37.9 °F 31.5 °F 35.1 °F 89% 29.87 in 10.0 mi ESE 9.2 mph 19.6 mph 0.00 in   Overcast
5:18 PM 39.2 °F 34.2 °F 35.6 °F 87% 29.93 in 10.0 mi ESE 6.9 mph - N/A   Overcast
5:53 PM 39.0 °F 32.3 °F 35.1 °F 86% 29.90 in 10.0 mi SE 10.4 mph - 0.00 in Rain Light Rain
6:22 PM 39.2 °F 33.0 °F 35.6 °F 87% 29.96 in 10.0 mi NE 9.2 mph - 0.01 in Rain Light Rain
6:36 PM 37.4 °F 30.8 °F 35.6 °F 93% 29.98 in 5.0 mi NNE 9.2 mph 16.1 mph 0.05 in Rain Rain
6:53 PM 36.0 °F 29.0 °F 34.0 °F 93% 29.95 in 8.0 mi East 9.2 mph - 0.08 in Rain Rain
7:28 PM 33.8 °F 27.0 °F 33.8 °F 100% 29.98 in 4.0 mi ENE 8.1 mph - 0.07 in Snow Light Snow
7:38 PM 33.8 °F 25.8 °F 33.8 °F 100% 29.98 in 7.0 mi ENE 10.4 mph - 0.07 in Snow Light Snow
7:53 PM 35.1 °F 25.9 °F 34.0 °F 96% 29.96 in 10.0 mi East 13.8 mph - 0.07 in Rain Light Rain
8:39 PM 35.6 °F 29.9 °F 33.8 °F 93% 30.02 in 10.0 mi East 6.9 mph - 0.00 in   Overcast
8:53 PM 35.1 °F 28.6 °F 33.1 °F 92% 29.99 in 10.0 mi ESE 8.1 mph - 0.00 in   Overcast
9:08 PM 33.8 °F 27.0 °F 33.8 °F 100% 30.03 in 10.0 mi East 8.1 mph 17.3 mph 0.00 in Snow Light Snow
10:44 PM 33.8 °F 29.6 °F 33.8 °F 100% 30.02 in 10.0 mi South 4.6 mph - N/A   Overcast
10:53 PM 34.0 °F 28.8 °F 33.1 °F 96% 30.01 in 10.0 mi West 5.8 mph - N/A   Overcast
11:53 PM 35.1 °F 31.0 °F 33.1 °F 92% 30.01 in 10.0 mi WSW 4.6 mph - N/A   Overcast